Regional Weather Roundup
Issued by NWS Sterling, VA

Home | Current Version | Previous Version | Text Only | Print | Product List | Glossary Off
Versions: 1 2 3 4 5 6 7 8 9 10 11 12 13 14 15 16 17 18 19 20 21 22 23 24 25 26 27 28 29 30 31 32 33 34 35 36 37 38 39 40 41 42 43 44 45 46 47 48 49 50

000
ASUS41 KLWX 200110
RWRLWX

REGIONAL WEATHER ROUNDUP
NATIONAL WEATHER SERVICE BALTIMORE MD/WASHINGTON DC
900 PM EDT TUE AUG 19 2014

Note: "FAIR" indicates few or no clouds below 12,000 feet
with no significant weather and/or obstructions to visibility.
 TC=TEMPERATURE CELSIUS

 * =Non NWS site. Station does not report precipitation (e.g. rain,
    snow, etc.), thunder, or fog.

DCZ001-MDZ009-015-VAZ040>042-051-053>054-200200-
WASHINGTON METRO
  /KDAA//-FT BELVOIR

CITY           SKY/WX    TMP DP  RH WIND       PRES   REMARKS
WASHINGTON NAT MOCLDY    80  64  58 E6        29.89R
DULLES         MOCLDY    76  66  71 SE7       29.89R
ANDREWS AFB    PTCLDY    74  66  76 E5        29.90R
QUANTICO       PTCLDY    78  69  73 SE5       29.89R
COLLEGE PARK*  MOCLDY    73  68  83 CALM      29.89R
LEESBURG*      MOCLDY    79  70  73 SE3       29.90R
MANASSAS*      CLEAR     75  72  88 CALM      29.88
GAITHERSBURG*  PTCLDY    72  64  78 SE3       29.94R

$$

MDZ006>007-011-014-200200-
BALTIMORE METRO

CITY           SKY/WX    TMP DP  RH WIND       PRES   REMARKS
BWI AIRPORT    MOCLDY    76  64  66 SE5       29.88R
MD SCIENCE CTR   N/A     79  63  57 MISG      29.89R
MARTIN STATE   PTCLDY    79  68  69 SE8       29.90R
ANNAPOLIS      PTCLDY    77  65  66 E7        29.89R
FORT MEADE*    MOCLDY    70  64  83 SE3       29.91S

$$

MDZ012-015-019>023-200200-
MARYLAND EASTERN SHORE

CITY           SKY/WX    TMP DP  RH WIND       PRES   REMARKS
OCEAN CITY     CLEAR     74  66  76 E7        29.89R
SALISBURY      CLEAR     73  64  73 NE5       29.88S
BAY BRIDGE AP*   N/A     75  61  60 E6        29.89R
CAMBRIDGE*     PTCLDY    73  63  68 E5        29.88S
EASTON*        CLEAR     75  66  73 CALM      29.93R

$$

MDZ017>025-200200-
SOUTHERN MARYLAND

CITY           SKY/WX    TMP DP  RH WIND       PRES   REMARKS
PATUXENT RIVER PTCLDY    76  68  76 E9        29.87R
ST INIGOES     CLEAR     75  67  76 E5        29.87R
LEONARDTOWN*   PTCLDY    73  68  83 CALM      29.90R

$$

MDZ003>005-200200-
NORTH CENTRAL MARYLAND

CITY           SKY/WX    TMP DP  RH WIND       PRES   REMARKS
FREDERICK*     MOCLDY    73  72  94 CALM      29.92R
HAGERSTOWN APT MOCLDY    76  68  76 SE5       29.90R
WESTMINSTER*   PTCLDY    75  66  73 SE3       29.92R

$$

MDZ501>502-200200-
WESTERN MARYLAND

CITY           SKY/WX    TMP DP  RH WIND       PRES   REMARKS
OAKLAND*       CLEAR     64 N/A N/A S5        29.99S
CUMBERLAND*    MOCLDY    77  70  78 S3        29.92R

$$

VAZ025>031-200200-
SHENANDOAH VALLEY

CITY           SKY/WX    TMP DP  RH WIND       PRES   REMARKS
WINCHESTER*    PTCLDY    73  68  83 SE5       29.89F
STAUNTON*      MOCLDY    72  67  84 CALM      29.94R

$$

WVZ021-048>050-054>055-200200-
EASTERN WEST VIRGINIA PANHANDLE

CITY           SKY/WX    TMP DP  RH WIND       PRES   REMARKS
MARTINSBURG    CLEAR     74  67  78 CALM      29.89R
PETERSBURG*    NOT AVBL

$$

VAZ036>039-050-200200-
CENTRAL FOOTHILLS

CITY           SKY/WX    TMP DP  RH WIND       PRES   REMARKS
CHARLOTTESVILL MOCLDY    75  70  84 S5        29.90R
ORANGE*        MOCLDY    72  68  88 CALM      29.92R

$$

VAZ055>057-200200-
NORTH AND CENTRAL PIEDMONT

CITY           SKY/WX    TMP DP  RH WIND       PRES   REMARKS
FREDERICKSBRG* PTCLDY    74  73  97 CALM      29.88R
STAFFORD*      PTCLDY    71  71 100 CALM      29.92S FOG

$$

NCZ024-NYZ072-PAZ021-071-VAZ022-071-200200-
OTHER REGIONAL OBSERVATIONS

CITY           SKY/WX    TMP DP  RH WIND       PRES   REMARKS
NEW YORK CITY  CLEAR     73  63  70 MISG      29.94R
PHILADELPHIA   MOCLDY    76  64  66 SE5       29.90R
PITTSBURGH     PTCLDY    78  66  66 CALM      29.86R
ROANOKE        MOCLDY    75  68  78 NE14      29.95R
RICHMOND       MOCLDY    76  71  85 CALM      29.88R
RALEIGH        MOCLDY    77  71  82 CALM      29.88R

$$

ANZ530>537-200200-
MARINE OBSERVATIONS

STATION/POSITION TIME  TEMP    WIND        PRES
                       AIR SEA DIR/SP/G
                 (UTC) (F)     (DEG/KT/KT) (MB)
THOMAS PT LIGHT  0100   77 78  100/  9/ 10 1012.6R
BALT KEY BRIDGE  0100   79     120/ 11/ 13 1011.7R
COVE POINT       0100   76     110/  9/ 11 1011.5S
LEWISETTA        0100   77 80  110/ 12/ 14 1011.2R
SOLOMONS ISLAND  0100      80                N/A
PINEY POINT      0100          130/ 12/ 13   N/A

$$




USA.gov is the U.S. government's official web portal to all federal, state and local government web resources and services.